Location: Bidwell Hollow
(37.7387°N, 90.1707°W)
Time: 02:43:39
(UTC+00:00)

Tiros 1 despin weight - Pass Details

Date: 22 May 2026
Orbit: 554 x 591 km, 48.2° (Epoch: 6 June)

Event Time Altitude Azimuth Distance (km) Brightness Sun altitude
Rises 13:57:26 0° 304° (NW) 2,743 ? 35.8°
Reaches altitude 10° 13:59:42 10° 306° (NW) 1,841 ? 36.2°
Maximum altitude 14:03:55 78° 33° (NNE) 569 ? 37.0°
Drops below altitude 10° 14:08:04 10° 120° (ESE) 1,825 ? 37.9°
Sets 14:10:19 0° 122° (ESE) 2,716 ? 38.3°
